Location: LDNL
(36.4545°S, 141.6685°E)
Time: 15:06:09
(UTC+10:00)

Hubble Space Telescope - Pass Details

Date: 04 July 2022
Orbit: 532 x 535 km, 28.5° (Epoch: 10 August)

Event Time Altitude Azimuth Distance (km) Brightness Sun altitude
Exits shadow 04:50:46 10° 46° (NE) 1,756 3.9 -34.4°
Drops below altitude 10° 04:50:51 10° 47° (NE) 1,785 3.9 -34.4°
Sets 04:53:25 0° 61° (ENE) 2,675 5.2 -33.8°
